Regional Weather Roundup
Issued by NWS

Home | Current Version | Previous Version | Graphics & Text | Print | Product List | Glossary On
Versions: 1 2 3 4 5 6 7 8 9 10 11 12 13 14 15 16 17 18 19 20 21 22 23 24 25 26 27 28 29 30 31 32 33 34 35 36 37 38 39 40 41 42 43 44 45 46 47 48 49 50
000
ASUS45 KCYS 250410
RWRWY

WYOMING REGIONAL WEATHER ROUNDUP
NATIONAL WEATHER SERVICE CHEYENNE WY
1000 PM MDT SUN MAY 24 2015

NOTE:  "FAIR" INDICATES FEW OR NO CLOUDS BELOW 12,000 FEET
WITH NO SIGNIFICANT WEATHER AND/OR OBSTRUCTIONS TO VISIBILITY.

WYZ001-250500-
YELLOWSTONE NATIONAL PARK

CITY           SKY/WX    TMP DP  RH WIND       PRES   REMARKS
LK YELLOWSTONE   N/A     40  35  83 CALM      30.05R
W YELLOWSTONE  NOT AVBL

$$
WYZ002>013-054>058-071-098>099-250500-
NORTHERN WYOMING

CITY           SKY/WX    TMP DP  RH WIND       PRES   REMARKS
JACKSON        FAIR      46  39  76 N9        29.95R
CODY           CLOUDY    48  43  81 NW5       29.98S
GREYBULL       CLOUDY    55  45  68 NW9       29.89S
WORLAND        CLOUDY    51  47  86 CALM      29.91R
SHERIDAN       LGT RAIN  50  49  96 N8        29.94F
BUFFALO        LGT RAIN  46  45  96 W6        29.95S
GILLETTE       CLOUDY    50  48  93 N9        29.90R
HULETT         CLOUDY    50  48  93 NE6       29.93R
NEWCASTLE      CLOUDY    52  45  76 MISG      29.87R

$$
WYZ014>020-022>026-101>103-250500-
CENTRAL WYOMING

CITY           SKY/WX    TMP DP  RH WIND       PRES   REMARKS
BIG PINEY      CLOUDY    42  40  92 S8        29.99R
PINEDALE       LGT RAIN  43  41  93 S3        30.00R
DUBOIS         CLOUDY    41  37  87 SE7       29.98R
LANDER         LGT RAIN  46  44  93 CALM      29.96R
RIVERTON       LGT RAIN  47  44  90 NE6       29.96R
CASPER         CLOUDY    46  43  89 N9        29.91S
DOUGLAS        FAIR      44  42  93 W7        29.89R

$$
WYZ021-027>030-104>119-250500-
SOUTHERN WYOMING

CITY           SKY/WX    TMP DP  RH WIND       PRES   REMARKS
EVANSTON       MOCLDY    42  40  92 SW10      29.97R
KEMMERER       CLOUDY    41  41 100 S3        30.00R
FORT BRIDGER   LGT RAIN  43  43 100 SE7       30.01R
ROCK SPRINGS   CLOUDY    43  39  86 E8        29.99R
DIXON          CLOUDY    44  39  82 CALM      29.99R
RAWLINS        MOCLDY    44  38  79 NE5       29.95R
SARATOGA       FAIR      39  37  93 SW6       29.96R WCI  35
LARAMIE        MOCLDY    39  36  89 W6        29.93R WCI  35
CHEYENNE       FAIR      45  39  79 NW5       29.89R
TORRINGTON     CLOUDY    53  48  83 NW7       29.84R
PINE BLUFFS    CLOUDY    46  43  87 CALM      29.87R

$$


USA.gov is the U.S. government's official web portal to all federal, state and local government web resources and services.